COSMOS 1275 DEB, 12674

Orbit data source: Space-Track

COSMOS 1275 DEB, 12674 is space debris in LEO originally from a launch on Thu, 04 Jun 1981 UTC launched from the Plesetsk Missile And Space Complex (PKMTR). Debris objects in space refer to the collection of defunct objects orbiting the Earth. Examples of debris include non-operational satellites, rocket bodies, and fragments generated from explosions, collisions, or faulty payload assembly.

Loading next visibility...
Identifier
12674, 1981-053AE
Orbit
LEO
Country
Flag of CISCIS
Related business
Manufacturer
Unknown
Mission
Spacecraft
Bus & Motor
Unknown
Mass
Unknown
Launch date (UTC)
1981-06-04 (44 years ago)
Launch vehicle
Unknown
Launch site
Plesetsk Missile And Space Complex (PKMTR)
Object type
Payload
Rocket body
Debris
Shape & HBR
Unknown shape, 0.2 m
Radar Cross Section
Medium (>0.1 m² and <1 m²)

Expand to show TLE details & history
Last TLE update: 17 hours ago

TLE from 17 hours ago
0 COSMOS 1275 DEB
1 12674U 81053AE  25308.58726362  .00000518  00000-0  51124-3 0  9994
2 12674  82.9369 172.8961 0099988 250.0958 136.7507 13.74802731208965
Epoch: 2025-11-04T14:05Z
TLE epoch observation values (Epoch: 2025-11-04T14:05:39.576Z)
Latitude
27.43538°
Longitude
-78.92203°
Altitude
1,039.69 km
Speed
7.307 km/s
True Right ascension
11h 46m 15s
True Declination
27° 18' 01"
Sunlit
Object was in daylight at epoch
Visualization orbit readout
Latitude
Unknown
Longitude
Unknown
Altitude
Unknown
Speed
Unknown
Apparent Right ascension
Unknown
Apparent Declination
Unknown
Sunlit
N/A
Visualization observer readout
Local Sidereal Time
03:14:47
Azimuth
Unknown
Elevation
Unknown
Doppler factor
Unknown
Orbital elements
Apogee altitude
1,053.096 km
Perigee altitude
905.96 km
Semi-major axis
7,357.665 km
Eccentricity
0.01
Inclination
82.9369°
RAAN
172.8961°
Arg. of periapsis
250.0958°
True anomaly
137.52865°
Mean anomaly
136.7507°
Eccentric anomaly
137.14038°
Mean motion
3.43901 °/min
Orbital period
104.68 mins
BSTAR
0.00051124
Loading maneuver chart data...
Computing Atmospheric mass density...
Loading historical data...
Loading historical data...
Loading historical data...
Loading historical data...
Loading historical data...
Loading historical data...
Loading historical data...

Documentation

Showing up to 5 results
|